Regional Weather Roundup
Issued by NWS Spokane, WA

Home | Current Version | Previous Version | Text Only | Print | Product List | Glossary On
Versions: 1 2 3 4 5 6 7 8 9 10 11 12 13 14 15 16 17 18 19 20 21 22 23 24 25 26 27 28 29 30 31 32 33 34 35 36 37 38 39 40 41 42 43 44 45 46 47 48 49 50
000
NZUS01 KOTX 162125
RWROTX

Eastern Washington/Northern Idaho Roundup
National Weather Service, Spokane WA
100 PM PST TUE JAN 16 2018

Note: "fair" indicated few or no clouds below 12,000 feet with no
significant weather and/or obstructions to visibility.

...Northeast Washington and Northern Idaho Panhandle...

CITY           SKY/WX    TMP DP  RH WIND       PRES   REMARKS
Spokane Intl   CLOUDY    36  36 100 S6        30.24F FOG
Spokane Downto PTSUNNY   41  36  82 NE5       30.26F
Coeur d Alene  CLOUDY    39  36  89 S5        30.26S
Deer Park      CLOUDY    34  33  96 CALM      30.26S
Sandpoint      CLOUDY    36  32  87 S5        30.26S
Bonners Ferry  MIX PCPN  34  28  80 S3        30.24R

...Southeast Washington and southern Idaho Panhandle...

CITY           SKY/WX    TMP DP  RH WIND       PRES   REMARKS
Walla Walla    CLOUDY    53  44  71 CALM      30.26R
Pullman/Moscow PTSUNNY   41  38  89 E8        30.28R
Lewiston       PTSUNNY   46  40  79 NE6       30.29S
Lowell           N/A     37  35  92 CALM      30.35
Grangeville    CLOUDY    36  34  93 E5        30.27S

...Columbia Basin...

CITY           SKY/WX    TMP DP  RH WIND       PRES   REMARKS
Ephrata        FOG       37  33  85 N6        30.25S VSB 1/4
Moses Lake     CLOUDY    41  40  96 S8        30.26R
Pasco          SUNNY     50  42  74 CALM      30.29S
Richland       CLEAR     54  42  65 SW9       30.28F
Hermiston      SUNNY     49  42  77 W5        30.28F
Pendleton      MOSUNNY   51  44  77 NW7       30.26R

...East Slopes Cascades...

CITY           SKY/WX    TMP DP  RH WIND       PRES   REMARKS
The Dalles     PTSUNNY   46  41  82 VRB3      30.30F
Yakima         PTSUNNY   47  39  74 CALM      30.26S
Ellensburg     CLOUDY    43  37  79 SW3       30.23R
Stampede Pass  PTSUNNY   38  34  85 VRB5      30.17S
Wenatchee      CLOUDY    36  35  96 E8        30.24R
Omak           CLOUDY    36  35  96 SW10      30.22F
Sunnyside      CLEAR     50  41  71 SE7       30.26S

...Southern British Columbia...

CITY           SKY/WX    TMP DP  RH WIND       PRES   REMARKS
Penticton      LGT RAIN  37  36  93 S14G21    30.19R
Castlegar      SNOWSHWR  34  32  93 SE2       30.24R
Cranbrook      CLOUDY    28  23  80 W3        30.21S
Osoyoos          N/A     39  34  81 S8          N/A
Creston          N/A     36  28  75 SW3         N/A

...Western Montana...

CITY           SKY/WX    TMP DP  RH WIND       PRES   REMARKS
Kalispell      CLOUDY    30  25  81 CALM      30.27F
Missoula       SUNNY     33  25  72 SW5       30.26F WCI  29

...Neighboring Cities...

CITY           SKY/WX    TMP DP  RH WIND       PRES   REMARKS
Seattle        MOSUNNY   54  40  59 SW16      30.22S
Portland       PTSUNNY   52  44  74 E9        30.27S
Boise          PTSUNNY   43  36  76 S13       30.31F
Great Falls    SUNNY     41  23  48 SW20      30.03S
Calgary        MOSUNNY   45  25  45 S3        29.85F



USA.gov is the U.S. government's official web portal to all federal, state and local government web resources and services.